Location: Geçitköy
(36.7327°N, 29.8010°E)
Time: 05:26:34
(UTC+00:00)

YAOGAN 1 - Pass Details

Date: 12 January 2026
Orbit: 605 x 607 km, 97.8° (Epoch: 15 February)

Event Time Altitude Azimuth Distance (km) Brightness Sun altitude
Rises 15:45:32 0° 139° (SE) 2,851 5.8 -8.2°
Reaches altitude 10° 15:47:58 10° 126° (SE) 1,952 4.8 -8.7°
Maximum altitude 15:51:29 26° 70° (ENE) 1,215 3.5 -9.3°
Drops below altitude 10° 15:55:00 10° 14° (NNE) 1,963 4.8 -10.0°
Sets 15:57:27 0° 2° (N) 2,871 5.8 -10.5°
